Weather History for Piney Island, NC

Change the Weather History Date:

Friday, November 2, 2012

  Actual Average (KMRH) Record (KMRH)
Temperature  
Mean Temperature 54 °F -  
Max Temperature 64 °F 73 °F 83 °F (1986)
Min Temperature 43 °F 54 °F 31 °F (1993)
Degree Days  
Heating Degree Days 12    
Growing Degree Days 4 (Base 50)    
Moisture  
Dew Point 40 °F    
Average Humidity 57    
Maximum Humidity 89    
Minimum Humidity 34    
Precipitation  
Precipitation 0.00 in - - ()
Sea Level Pressure  
Sea Level Pressure 29.89 in    
Wind  
Wind Speed 8 mph (West)    
Max Wind Speed 15 mph    
Max Gust Speed 26 mph    
Visibility 10 miles    
Events      
Averages and records for this station are not official NWS values.
T = Trace of Precipitation, MM = Missing Value Source: NWS Daily Summary

Daily Weather History Graph

Daily Weather History Graph

Search for Another Location

Airport:

Trip Planner

Search our weather history database for the weather conditions in past years. The results will help you decide how hot, cold, wet, or windy it might be!

Date:

Astronomy

Nov. 02, 2012 Rise Set
Actual Time 7:28 AM EDT 6:10 PM EDT
Civil Twilight 7:01 AM EDT 6:36 PM EDT
Nautical Twilight 6:31 AM EDT 7:06 PM EDT
Astronomical Twilight 6:02 AM EDT 7:35 PM EDT
Moon 8:59 PM EDT (11/2) 10:42 AM EDT (11/2)
Length of Visible Light 11h 34m
Length of Day
10h 41m
Waning Gibbous, 87% of the Moon is Illuminated
Nov 2
Waning Gibbous
Nov 6
Last Quarter
Nov 13
New
Nov 20
First Quarter
Nov 28
Full

Hourly Weather History & Observations

Time (EDT) Temp. Windchill Dew Point Humidity Pressure Visibility Wind Dir Wind Speed Gust Speed Precip Events Conditions
12:56 AM 53.1 °F - 39.9 °F 61% 29.87 in 10.0 mi WNW 9.2 mph - N/A   Partly Cloudy
1:56 AM 51.1 °F - 39.9 °F 66% 29.88 in 10.0 mi WNW 10.4 mph - N/A   Clear
2:56 AM 50.0 °F - 39.9 °F 68% 29.88 in 10.0 mi West 6.9 mph - N/A   Clear
3:56 AM 50.0 °F - 37.9 °F 63% 29.87 in 10.0 mi WNW 6.9 mph - N/A   Clear
4:56 AM 48.0 °F - 39.9 °F 74% 29.88 in 10.0 mi WSW 4.6 mph - N/A   Clear
5:56 AM 43.0 °F 39.5 °F 39.9 °F 89% 29.89 in 10.0 mi SW 5.8 mph - N/A   Clear
6:56 AM 46.0 °F 41.9 °F 41.0 °F 83% 29.91 in 10.0 mi WSW 8.1 mph - N/A   Clear
7:56 AM 48.0 °F - 37.9 °F 68% 29.91 in 10.0 mi WNW 9.2 mph - N/A   Clear
8:56 AM 53.1 °F - 37.0 °F 55% 29.93 in 10.0 mi West 11.5 mph - N/A   Clear
9:56 AM 55.0 °F - 36.0 °F 49% 29.93 in 10.0 mi West 9.2 mph - N/A   Clear
10:56 AM 57.9 °F - 32.0 °F 37% 29.92 in 10.0 mi West 6.9 mph - N/A   Clear
11:56 AM 62.1 °F - 34.0 °F 35% 29.90 in 10.0 mi WSW 9.2 mph - N/A   Clear
12:56 PM 64.9 °F - 36.0 °F 34% 29.85 in 10.0 mi SW 13.8 mph 20.7 mph N/A   Clear
1:56 PM 64.0 °F - 37.0 °F 37% 29.81 in 10.0 mi SW 15.0 mph 26.5 mph N/A   Partly Cloudy
2:56 PM 64.9 °F - 39.0 °F 39% 29.80 in 10.0 mi SW 13.8 mph 25.3 mph N/A   Clear
3:56 PM 64.9 °F - 39.9 °F 40% 29.81 in 10.0 mi WSW 13.8 mph 19.6 mph N/A   Clear
4:56 PM 64.0 °F - 39.0 °F 40% 29.82 in 10.0 mi WSW 9.2 mph - N/A   Clear
5:56 PM 59.0 °F - 43.0 °F 55% 29.85 in 10.0 mi North 8.1 mph - N/A   Mostly Cloudy
6:56 PM 57.9 °F - 44.1 °F 60% 29.89 in 10.0 mi North 4.6 mph - N/A   Clear
7:56 PM 55.9 °F - 45.0 °F 67% 29.91 in 10.0 mi NNW 5.8 mph - N/A   Clear
8:56 PM 55.0 °F - 43.0 °F 64% 29.94 in 10.0 mi NNW 4.6 mph - N/A   Clear
9:56 PM 55.0 °F - 42.1 °F 62% 29.95 in 10.0 mi NW 3.5 mph - N/A   Clear
10:56 PM 55.0 °F - 41.0 °F 59% 29.97 in 10.0 mi Calm Calm - N/A   Clear
11:56 PM 54.0 °F - 44.1 °F 69% 29.96 in 10.0 mi WSW 3.5 mph - N/A   Clear